Showing default

TJS-23, 67226

Orbit data source: Space-Track

TJS-23, 67226 is a Chinese payload satellite in GEO that was launched on Sat, 20 Dec 2025 UTC via a CHANG ZHENG 5 launch vehicle from the Wenchang Satellite Launch Center (WSC). Payload-class satellites include a variety of spacecraft equipped with specific instruments for various scientific and technological missions. These include communications satellites like Starlink; space stations such as the ISS; scientific satellites like the Hubble; Earth observation satellites from companies like Planet Labs, Umbra, and HawkEye 360; GPS; miniature CubeSats for education and research; and military/defense satellites.

Not visible in the next 10 days
Identifier
67226, 2025-306A
Orbit
GEO
Country
Flag of CNCN / PRC
Related business
Manufacturer
CAST
Mission
Operational Defense Sigint
Bus & Motor
TJS11, Unknown motor
Mass
~10,000 kg wet, ~6,000 kg dry
Launch date (UTC)
2025-12-20 (6 months ago)
Launch vehicle
CHANG ZHENG 5
Launch site
Wenchang Satellite Launch Center (WSC)
Object type
Payload
Rocket body
Debris
Shape & HBR
Box + 2 Pan + 1 Dish, 1.1 m
Radar Cross Section
63.841 m², Large (>1 m²)

Expand to show TLE details & history
Last TLE update: 1 day ago

TLE from 1 day ago
0 TJS-23
1 67226U 25306A   26170.59511561  .00000010  00000-0  00000-0 0  9999
2 67226   5.5825 297.4740 0004726 175.6001 184.5544  1.00266223  1916
Epoch: 2026-06-19T14:16Z
TLE epoch observation values (Epoch: 2026-06-19T14:16:57.988Z)
Latitude
-0.00001°
Longitude
175.55945°
Altitude
35,807.573 km
Speed
3.073 km/s
True Right ascension
19h 50m 29s
True Declination
0° 00' 00"
Sunlit
Object was in daylight at epoch
Visualization orbit readout
Latitude
Unknown
Longitude
Unknown
Altitude
Unknown
Speed
Unknown
Apparent Right ascension
Unknown
Apparent Declination
Unknown
Sunlit
N/A
Visualization observer readout
Local Sidereal Time
07:22:53
Azimuth
Unknown
Elevation
Unknown
Doppler factor
Unknown
Orbital elements
Apogee altitude
35,809.138 km
Perigee altitude
35,769.281 km
Semi-major axis
42,167.347 km
Eccentricity
0.00047
Inclination
5.5825°
RAAN
297.474°
Arg. of periapsis
175.6001°
True anomaly
184.5501°
Mean anomaly
184.5544°
Eccentric anomaly
184.55225°
Mean motion
0.25066 °/min
Orbital period
1,436.23 mins
BSTAR
0
Loading maneuver chart data...
Computing Atmospheric mass density...
Loading historical data...
Loading historical data...
Loading historical data...
Loading historical data...
Loading historical data...
Loading historical data...
Loading historical data...
Other satellites on launch #306 in the year 2025 (2025-12-20 UTC)

Documentation

Showing up to 5 results
|